This is the latest recevied weather packets stored in our database for station/object N8SHA. If no packets are shown the sender has not sent any weather packets the latest 10 day(s).
| Time | Temp. | Humidity | Pressure | Rain* | Wind** | Luminosity | Snow |
|---|---|---|---|---|---|---|---|
| 1777810506 | 7.22° C | 56% | 1013 hPa | 0 mm | - | 104 W/m² | - |
| 1777810203 | 6.67° C | 58% | 1013.1 hPa | 0 mm | - | 98 W/m² | - |
| 1777809899 | 6.11° C | 59% | 1012.8 hPa | 0 mm | - | 87 W/m² | - |
| 1777809597 | 6.11° C | 59% | 1013 hPa | 0 mm | - | 51 W/m² | - |
| 1777809295 | 6.11° C | 58% | 1012.9 hPa | 0 mm | - | 44 W/m² | - |
| 1777808992 | 6.11° C | 58% | 1012.9 hPa | 0 mm | - | 46 W/m² | - |
| 1777808689 | 6.11° C | 58% | 1012.9 hPa | 0 mm | - | 48 W/m² | - |
| 1777808385 | 6.11° C | 58% | 1012.9 hPa | 0 mm | - | 45 W/m² | - |
| 1777808084 | 6.11° C | 58% | 1012.8 hPa | 0 mm | - | 37 W/m² | - |
| 1777807782 | 6.11° C | 58% | 1012.9 hPa | 0 mm | - | 32 W/m² | - |
| 1777807480 | 5.56° C | 58% | 1012.9 hPa | 0 mm | - | 30 W/m² | - |
| 1777807175 | 5.56° C | 59% | 1012.7 hPa | 0 mm | - | 27 W/m² | - |
| 1777806873 | 5.56° C | 59% | 1012.9 hPa | 0 mm | - | 25 W/m² | - |
| 1777806569 | 5.56° C | 58% | 1012.8 hPa | 0 mm | - | 23 W/m² | - |
| 1777806265 | 5.56° C | 59% | 1012.8 hPa | 0 mm | - | 21 W/m² | - |
| 1777805961 | 5° C | 60% | 1012.9 hPa | 0 mm | - | 18 W/m² | - |
| 1777805658 | 5° C | 60% | 1013.1 hPa | 0 mm | - | 16 W/m² | - |
| 1777805356 | 5° C | 59% | 1012.8 hPa | 0 mm | - | 12 W/m² | - |
| 1777805054 | 5° C | 58% | 1012.6 hPa | 0 mm | - | 10 W/m² | - |
| 1777804751 | 4.44° C | 60% | 1013 hPa | 0 mm | - | 7 W/m² | - |
| 1777804449 | 4.44° C | 59% | 1012.8 hPa | 0 mm | - | 5 W/m² | - |
| 1777804146 | 4.44° C | 58% | 1012.7 hPa | 0 mm | - | 3 W/m² | - |
| 1777803843 | 4.44° C | 59% | 1012.9 hPa | 0 mm | - | 2 W/m² | - |
| 1777803538 | 4.44° C | 58% | 1012.9 hPa | 0 mm | - | 1 W/m² | - |
| 1777803236 | 4.44° C | 58% | 1012.8 hPa | 0 mm | - | 0 W/m² | - |
* Rain latest hour (hover to see other rain measurements)
** Current wind speed in m/s (hover to see current wind gust speed)